Regional Weather Roundup
Issued by NWS

Home | Current Version | Previous Version | Text Only | Print | Product List | Glossary On
Versions: 1 2 3 4 5 6 7 8 9 10 11 12 13 14 15 16 17 18 19 20 21 22 23 24 25 26 27 28 29 30 31 32 33 34 35 36 37 38 39 40 41 42 43 44 45 46 47 48 49 50
000
ASUS44 KLUB 201210
RWRTX
WEST TEXAS WEATHER ROUNDUP
NATIONAL WEATHER SERVICE LUBBOCK TX
600 AM CST SAT DEC 20 2014

NOTE: "FAIR" INDICATES FEW OR NO CLOUDS BELOW 12,000 FEET WITH NO
SIGNIFICANT WEATHER AND/OR OBSTRUCTIONS TO VISIBILITY.

TXZ004-006>008-010-012-014-016-OKZ002-201300-
TEXAS PANHANDLE/OKLAHOMA PANHANDLE

CITY           SKY/WX    TMP DP  RH WIND       PRES   REMARKS
AMARILLO       CLOUDY    33  33 100 S13       30.10S FOG     WCI  24
BORGER         CLOUDY    37  33  85 SW8       30.11F WCI  31
CANADIAN       CLOUDY    41  38  88 SW3       30.13S
DALHART        FOG       30  28  92 SW7       30.08F VSB 1/4 WCI  23
DUMAS          FOG       31  31  99 SW9       30.09S VSB 1/2 WCI  23
GUYMON         CLEAR     27  24  89 S9        30.08S WCI  18
HEREFORD       CLOUDY    33  33 100 SW10      30.10R FOG     WCI  25
PAMPA          CLOUDY    37  34  90 W8        30.11S WCI  30
PERRYTON       CLOUDY    37  34  89 SW10      30.11S WCI  30
$$

TXZ026-029-035-045-048-201300-
SOUTHERN PANHANDLE/SOUTH PLAINS/ROLLING PLAINS

CITY           SKY/WX    TMP DP  RH WIND       PRES   REMARKS
CHILDRESS      CLOUDY    42  38  85 S6        30.16F
SEMINOLE       FOG       37  37 100 CALM      30.14S VSB 1/2
LUBBOCK        CLOUDY    37  35  92 SW10      30.13S FOG     WCI  30
PLAINVIEW      CLOUDY    36  35  95 SW6       30.11S WCI  31
SNYDER         CLOUDY    41  37  84 CALM      30.17F
$$

TXZ052-054-060>062-072-078-127-140-154-169-201300-
PERMIAN BASIN/CONCHO VALLEY/BIG COUNTRY/EDWARDS PLATEAU

CITY           SKY/WX    TMP DP  RH WIND       PRES   REMARKS
ABILENE        CLOUDY    44  38  79 NW6       30.19S
BIG SPRING     CLOUDY    33  32  95 CALM      30.18S
BRADY          CLOUDY    45  45 100 E3        30.17R
BROWNWOOD      CLOUDY    46  43  87 CALM      30.19S
JUNCTION       CLOUDY    42  42 100 S6        30.17R FOG
MIDLAND        FOG       36  35  96 SE5       30.13F VSB 1/4 WCI  32
ODESSA         FOG       36  35  96 SE6       30.13F VSB 1/4 WCI  31
SAN ANGELO     CLOUDY    42  39  89 CALM      30.16R
SONORA         FOG       41  41 100 CALM      30.21R VSB 1/4
SWEETWATER     CLOUDY    43  38  81 CALM      30.20S
WINK           CLOUDY    29  26  89 N3        30.12R FOG
$$

TXZ055-058-074-075-080-082-201300-
FAR WEST/SOUTHWEST MOUNTAINS/TRANS PECOS

CITY           SKY/WX    TMP DP  RH WIND       PRES   REMARKS
ALPINE         PTCLDY    34  28  78 SW10      30.18F WCI  26
DRYDEN           N/A     48  45  89 SE3       30.13F
EL PASO        PTCLDY    31  24  75 N5        30.13S WCI  26
FORT STOCKTON  CLEAR     38  32  79 SW8       30.13S WCI  32
MARFA          PTCLDY    21  18  86 N7        30.15S WCI  13
PECOS          CLEAR     29  26  88 CALM      30.14R
PRESIDIO       FAIR      39  30  70 CALM      30.13S
$$

TXZ014-016-019-021>030-083-201300
TEXAS TECH WEST TEXAS MESONET/TEXAS PANHANDLE/NORTHERN SOUTH PLAINS

CITY           SKY/WX    TMP DP  RH WIND       PRES   REMARKS
ABERNATHY 5ENE   N/A     35  35  96 SW9       30.13F WCI  28
AMARILLO 9NNE    N/A     34  33  95 SW7       30.11R WCI  28
AMARILLO 7SSE    N/A     33  32  97 S10       30.11S WCI  24
AMHERST 1NE      N/A     33  32  99 S7        30.12S WCI  26
BOOTLEG 11WNW    N/A     25  24  95 S5        30.08F WCI  19
CANADIAN 6E      N/A     39  37  89 SW5       30.12S
CAPROCK CYN SP   N/A     39  36  87 SW6       30.15S WCI  35
CHILDRESS 2NNE   N/A     41  38  91 S6        30.15F
CLARENDON 2WSW   N/A     40  36  87 SW6       30.12S
CLAUDE 12SW      N/A     34  33  96 SW5       30.11S WCI  30
DIMMITT 2NE      N/A     31  31  99 S8        30.09S WCI  24
FLOYDADA 2NNE    N/A     37  35  92 SW10      30.13S WCI  29
FRIONA 2NE       N/A     29  29  99 SW6       30.09F WCI  23
GOODLETT 3W      N/A     41  39  92 SE3       30.16F
HART 3N          N/A     33  32  99 SW8       30.11S WCI  26
HEREFORD 2NW     N/A     31  31  99 S6        30.09S WCI  25
MCLEAN 1E        N/A     39  35  86 SW7       30.10S WCI  34
MEMPHIS 1NE      N/A     41  38  91 SE5       30.15R
MULESHOE 2SSW    N/A     30  30  99 S6        30.11R WCI  24
OLTON 6S         N/A     34  33  96 S12       30.11S WCI  25
PALO DURO SP     N/A     33  32  94 SW7       30.12S WCI  27
PAMPA 2E         N/A     37  34  92 SW7       30.10F WCI  31
PLAINVIEW 1S     N/A     35  34  98 SW8       30.12S WCI  28
SILVERTON 7ESE   N/A     37  35  92 SW9       30.12S WCI  30
TULIA 2ENE       N/A     33  33  99 S8        30.11F WCI  26
TURKEY 2WSW      N/A     41  37  87 SW7       30.14S
UMBARGER 3NNE    N/A     32  31  99 SW7       30.09F WCI  25
$$

TXZ033>036-039>041-045>048-201300
TEXAS TECH WEST TEXAS MESONET/SOUTH PLAINS

CITY           SKY/WX    TMP DP  RH WIND       PRES   REMARKS
AIKEN 3WSW       N/A     35  34  96 SW10      30.13S WCI  28
ANTON 6SSW       N/A     35  35  97 SW7       30.13S WCI  29
BROWNFIELD 2S    N/A     36  36  99 SW6       30.14R WCI  31
DENVR CTY 7WNW   N/A     35  35  99 S3        30.12S
GAIL 2ESE        N/A     41  37  84 SW1       30.15F
LAMESA 2SE       N/A     39  37  94 SE6       30.15S WCI  35
LEVELLAND 4S     N/A     35  34  95 S8        30.13S WCI  28
LUBBOCK 3WNW     N/A     37  35  92 S7        30.14S WCI  31
MORTON 1ENE      N/A     32  32  99 SW8       30.11S WCI  25
ODONNELL 1N      N/A     38  36  94 S2        30.15S
PLAINS 3N        N/A     35  34  99 SW3       30.13R
RALLS 1SE        N/A     38  35  90 W8        30.14S WCI  32
REESE CENTER     N/A     35  35  96 SW8       30.13S WCI  29
SEAGRAVES 1SW    N/A     37  36  99 S5        30.14R WCI  33
SEMINOLE 2NNE    N/A     37  37  97 SE3       30.14R
SLATON 2NE       N/A     37  35  91 W7        30.14S WCI  32
SNYDER 3E        N/A     41  37  86 CALM      30.16F
SUNDOWN 8SW      N/A     35  34  98 S7        30.12S WCI  29
TAHOKA 3NNE      N/A     38  36  92 SW6       30.14S WCI  33
WOLFFORTH 6SSW   N/A     37  37  99 SW7       30.14S WCI  31
$$

TXZ031-032-036>038-042>044-201300-
TEXAS TECH WEST TEXAS MESONET/ROLLING PLAINS

CITY           SKY/WX    TMP DP  RH WIND       PRES   REMARKS
ASPERMONT 3NE    N/A     44  39  85 SE2       30.18S
FLUVANNA 3WNW    N/A     40  36  85 SW5       30.15F
GRAHAM 5SSW      N/A     39  36  88 S9        30.15S WCI  33
GUTHRIE 10WSW    N/A     42  38  86 SW3       30.16S
HASKELL 1NW      N/A     43  40  89 E2        30.18S
JAYTON 1SSE      N/A     42  39  87 SW2       30.17S
KNOX CITY 3NW    N/A     44  39  83 SE2       30.19R
LK A HENRY 1NW   N/A     42  38  83 CALM      30.16S
NORTHFIELD 1S    N/A     42  38  88 S5        30.15F
ODELL 4ENE       N/A     41  40  95 S2        30.19F
PADUCAH 10SW     N/A     42  37  81 SW5       30.16S
POST 1NE         N/A     41  37  83 SW6       30.15F
SEYMOUR 3NW      N/A     43  40  89 NE1       30.20R
SPUR 1W          N/A     41  36  84 SW3       30.15S
WHITE RVR 6NE    N/A     39  36  86 SW6       30.14S
$$

TXZ052-054-060>062-072-078-127-140-154-169-201300-
TEXAS TECH WEST TEXAS MESONET/PERMIAN BASIN/
CONCHO VALLEY/BIG COUNTRY/EDWARDS PLATEAU

CITY           SKY/WX    TMP DP  RH WIND       PRES   REMARKS
COYANOSA 2N      N/A     29  26  88 SW6       30.14R WCI  23
JUNCTION 1SSW    N/A     42  41  97 S5        30.19R
MERTZON 3NNE     N/A     40  37  90 S1        30.18R
SAN ANGELO 7NW   N/A     41  38  89 NE2       30.16S
STRLNG CT 4WSW   N/A     33  32  97 SW1       30.17S
ST LAWRNCE 5SW   N/A     31  31  99 CALM      30.15S
SWEETWATR 11SW   N/A     41  37  86 CALM      30.17F
WALL 1E          N/A     41  37  86 E5        30.17R
$$

TXZ055-058-074-075-080-082-201300-
TEXAS TECH WEST TEXAS MESONET/FAR WEST/SOUTHWEST MOUNTAINS/TRANS PECOS

CITY           SKY/WX    TMP DP  RH WIND       PRES   REMARKS
PRSMN GAP BBNP   N/A     45  38  77 NE8       30.14R
$$



USA.gov is the U.S. government's official web portal to all federal, state and local government web resources and services.